Location: Baumgartsau
(48.4586°N, 14.0864°E)
Time: 12:47:20
(UTC+00:00)

BREEZE M DEB (TANK) - Pass Details

Date: 14 August 2020
Orbit: 304 x 11869 km, 49.5° (Epoch: 20 September)

Event Time Altitude Azimuth Distance (km) Brightness Sun altitude
Exits shadow 22:44:44 24° 149° (SSE) 8,613 7.8 -27.3°
Maximum altitude 22:53:01 26° 132° (SE) 6,902 7.4 -27.5°
Drops below altitude 10° 23:06:26 10° 84° (E) 5,235 7.3 -27.6°
Sets 23:09:49 0° 71° (ENE) 5,397 7.6 -27.6°
